Location: Northern Prairie Star Party
(53.2167°N, 112.5333°W)
Time: 04:09:46
(UTC-06:00)

Amateur Radio Satellites - All Passes

Search period start: 16 April 2014 03:39
Search period end: 17 April 2014 03:39
Location: Northern Prairie Star Party, 53.2167°N, 112.5333°W

Satellite Date Start Highest point End Downlink Frequencies (MHz)
Time Altitude Azimuth
AO-27 16 Apr 03:42:32 03:47:42 62° 102° (ESE) 03:52:49 436.795 MHz FM
Sapphire 16 Apr 03:50:00 03:55:22 62° 315° (NW) 04:00:47 437.095 MHz 1200 baud AX-25 AFSK
ITAMSAT 1 16 Apr 03:54:16 03:59:28 75° 104° (ESE) 04:04:38 435.822 SSB
TMSAT-1 16 Apr 04:04:14 04:08:45 27° 92° (E) 04:13:14 436.925 FM
Oscar 19 16 Apr 04:07:56 04:13:00 54° 293° (WNW) 04:18:03 437.125 CW, 437.150 USB
Oscar 16 16 Apr 04:15:37 04:20:33 45° 295° (WNW) 04:25:28 437.025 USB, Beacon 2401.1428
PCSat 16 Apr 04:36:03 04:41:03 36° 326° (NW) 04:46:05 145.825 MHz
AO-Echo 16 Apr 04:40:01 04:44:50 57° 292° (WNW) 04:49:29 ?
Uribyol 2 16 Apr 04:43:55 04:48:52 47° 295° (WNW) 04:53:48 436.500 FM
OPAL 16 Apr 04:47:55 04:50:29 14° 273° (W) 04:53:05 ?
Gurwin Techsat 1B 16 Apr 04:53:02 04:58:23 82° 105° (ESE) 05:03:43 435.225 FM
Uosat F 16 Apr 04:55:06 04:59:26 28° 94° (E) 05:03:43 435.120 FM
AO-7 16 Apr 04:57:40 05:04:29 27° 90° (E) 05:11:15 29.400 - 29.500 MHz
KITSAT 1 16 Apr 05:03:46 05:11:49 70° 124° (SE) 05:19:54 435.175 FM
UOSAT-12 16 Apr 05:15:22 05:18:00 15° 249° (WSW) 05:20:38 437.025 FM, 437.400 FM
JAS-1B 16 Apr 05:17:28 05:23:07 48° 99° (E) 05:28:36 435.800 - 435.900 CW/SSB
AO-27 16 Apr 05:22:36 05:26:54 27° 302° (WNW) 05:31:11 436.795 MHz FM
ITAMSAT 1 16 Apr 05:34:30 05:38:31 23° 305° (NW) 05:42:30 435.822 SSB
Sapphire 16 Apr 05:35:27 05:39:51 24° 339° (NNW) 05:44:15 437.095 MHz 1200 baud AX-25 AFSK
STRAND 1 16 Apr 05:38:56 05:42:51 23° 55° (NE) 05:46:46 ?
TMSAT-1 16 Apr 05:43:50 05:49:02 57° 292° (WNW) 05:54:12 436.925 FM
Oscar 19 16 Apr 05:49:05 05:51:18 13° 314° (NW) 05:53:31 437.125 CW, 437.150 USB
Oscar 16 16 Apr 05:57:24 05:58:44 11° 316° (NW) 06:00:03 437.025 USB, Beacon 2401.1428
RS-15 16 Apr 06:06:01 06:08:38 11° 90° (E) 06:11:14 29.354 - 29.394 USB, Beacon 29.352 USB
AO-Echo 16 Apr 06:20:40 06:22:37 12° 313° (NW) 06:24:32 ?
PCSat 16 Apr 06:22:05 06:26:01 20° 351° (N) 06:29:57 145.825 MHz
Uribyol 2 16 Apr 06:25:40 06:27:12 11° 316° (NW) 06:28:44 436.500 FM
Uosat F 16 Apr 06:33:38 06:38:30 52° 293° (WNW) 06:43:20 435.120 FM
Gurwin Techsat 1B 16 Apr 06:33:49 06:37:49 22° 306° (NW) 06:41:48 435.225 FM
AO-7 16 Apr 06:49:58 06:58:20 88° 292° (WNW) 07:06:41 29.400 - 29.500 MHz
Hamsat 16 Apr 06:53:50 06:57:07 21° 90° (E) 07:00:23 145.90 MHz
KITSAT 1 16 Apr 06:59:51 07:07:42 49° 329° (NNW) 07:15:35 435.175 FM
JAS-1B 16 Apr 07:08:30 07:13:45 35° 302° (WNW) 07:18:49 435.800 - 435.900 CW/SSB
STRAND 1 16 Apr 07:16:27 07:21:34 76° 255° (WSW) 07:26:43 ?
AO-40 16 Apr 07:20:48 11:45:54 23° 176° (S) 15:17:35 Beacon 2401.320
Sapphire 16 Apr 07:21:17 07:25:08 19° 5° (N) 07:28:59 437.095 MHz 1200 baud AX-25 AFSK
TMSAT-1 16 Apr 07:25:24 07:27:57 14° 313° (NW) 07:30:30 436.925 FM
JAS-2 16 Apr 07:27:45 07:31:10 17° 88° (E) 07:34:43 435.800 - 435.900 CW/SSB, 435.910 FM
MaSat-1 16 Apr 07:29:01 07:31:34 40° 51° (NE) 07:34:24 437.345 MHz
SO-67 16 Apr 07:37:59 07:38:05 10° 86° (E) 07:38:12 435.3500 MHz FM
PCSat 16 Apr 08:07:06 08:11:20 22° 17° (NNE) 08:15:34 145.825 MHz
RS-15 16 Apr 08:07:25 08:17:52 47° 115° (ESE) 08:28:02 29.354 - 29.394 USB, Beacon 29.352 USB
Uosat F 16 Apr 08:14:25 08:16:16 12° 314° (NW) 08:18:06 435.120 FM
Hamsat 16 Apr 08:29:12 08:33:27 57° 289° (WNW) 08:37:43 145.90 MHz
AO-7 16 Apr 08:43:20 08:50:17 31° 315° (NW) 08:57:15 29.400 - 29.500 MHz
KITSAT 1 16 Apr 08:57:50 09:05:04 33° 357° (N) 09:12:17 435.175 FM
STRAND 1 16 Apr 08:59:11 09:01:40 14° 275° (W) 09:04:09 ?
Sapphire 16 Apr 09:05:21 09:10:13 32° 30° (NNE) 09:15:03 437.095 MHz 1200 baud AX-25 AFSK
MaSat-1 16 Apr 09:08:11 09:09:51 15° 247° (WSW) 09:11:38 437.345 MHz
SO-67 16 Apr 09:08:17 09:11:49 85° 285° (WNW) 09:15:19 435.3500 MHz FM
JAS-2 16 Apr 09:11:47 09:17:01 85° 287° (WNW) 09:22:35 435.800 - 435.900 CW/SSB, 435.910 FM
HO-68 16 Apr 09:27:42 09:32:57 21° 87° (E) 09:38:11 435.675 MHz FM
PCSat 16 Apr 09:50:39 09:55:58 52° 42° (NE) 10:01:16 145.825 MHz
Oscar 11 16 Apr 09:55:52 09:56:22 10° 84° (E) 09:56:51 145.825 FM, Beacon 2401.500 USB
Hamsat 16 Apr 10:07:39 10:08:35 11° 309° (NW) 10:09:31 145.90 MHz
RS-15 16 Apr 10:18:34 10:29:45 74° 321° (NW) 10:40:44 29.354 - 29.394 USB, Beacon 29.352 USB
AO-7 16 Apr 10:36:42 10:40:36 14° 341° (NNW) 10:44:31 29.400 - 29.500 MHz
SO-67 16 Apr 10:43:30 10:44:23 11° 304° (NW) 10:45:16 435.3500 MHz FM
Sapphire 16 Apr 10:48:46 10:54:13 81° 233° (SW) 10:59:38 437.095 MHz 1200 baud AX-25 AFSK
KITSAT 1 16 Apr 10:54:51 11:02:35 44° 26° (NNE) 11:10:15 435.175 FM
JAS-2 16 Apr 10:58:06 11:01:32 18° 308° (NW) 11:05:04 435.800 - 435.900 CW/SSB, 435.910 FM
FUNcube-1 16 Apr 11:09:30 11:12:27 18° 90° (E) 11:15:25 145.950 - 145.970 MHz USB
HO-68 16 Apr 11:14:31 11:21:45 84° 108° (ESE) 11:28:57 435.675 MHz FM
Oscar 11 16 Apr 11:29:02 11:33:24 71° 103° (ESE) 11:37:45 145.825 FM, Beacon 2401.500 USB
PCSat 16 Apr 11:34:17 11:39:20 40° 243° (WSW) 11:44:21 145.825 MHz
Oscar 19 16 Apr 12:15:14 12:18:23 17° 50° (NE) 12:21:32 437.125 CW, 437.150 USB
Oscar 16 16 Apr 12:22:21 12:25:54 19° 53° (NE) 12:29:29 437.025 USB, Beacon 2401.1428
AO-7 16 Apr 12:27:05 12:30:02 12° 9° (N) 12:32:59 29.400 - 29.500 MHz
Sapphire 16 Apr 12:33:24 12:36:52 17° 254° (WSW) 12:40:19 437.095 MHz 1200 baud AX-25 AFSK
RS-15 16 Apr 12:33:25 12:43:57 47° 352° (N) 12:54:26 29.354 - 29.394 USB, Beacon 29.352 USB
AO-Echo 16 Apr 12:44:48 12:47:23 14° 49° (NE) 12:49:57 ?
FUNcube-1 16 Apr 12:45:08 12:49:17 61° 289° (WNW) 12:53:30 145.950 - 145.970 MHz USB
KITSAT 1 16 Apr 12:50:38 12:58:48 84° 232° (SW) 13:06:53 435.175 FM
Uribyol 2 16 Apr 12:51:22 12:54:57 19° 53° (NE) 12:58:32 436.500 FM
HO-68 16 Apr 13:02:49 13:08:49 30° 310° (NW) 13:14:49 435.675 MHz FM
Oscar 11 16 Apr 13:06:05 13:09:10 19° 303° (WNW) 13:12:14 145.825 FM, Beacon 2401.500 USB
Gurwin Techsat 1B 16 Apr 13:06:18 13:07:24 11° 43° (NE) 13:08:30 435.225 FM
Saudisat 1A 16 Apr 13:13:38 13:17:55 48° 126° (SE) 13:22:14 436.775 MHz
AO-27 16 Apr 13:28:29 13:33:04 33° 60° (ENE) 13:37:39 436.795 MHz FM
ITAMSAT 1 16 Apr 13:39:51 13:44:36 38° 62° (ENE) 13:49:23 435.822 SSB
Oscar 19 16 Apr 13:51:48 13:56:56 74° 71° (ENE) 14:02:07 437.125 CW, 437.150 USB
TMSAT-1 16 Apr 13:53:58 13:57:15 17° 50° (NE) 14:00:33 436.925 FM
Oscar 16 16 Apr 13:59:28 14:04:37 88° 73° (ENE) 14:09:50 437.025 USB, Beacon 2401.1428
AO-7 16 Apr 14:13:53 14:19:56 23° 36° (NE) 14:25:58 29.400 - 29.500 MHz
AO-Echo 16 Apr 14:20:06 14:25:16 61° 69° (ENE) 14:30:19 ?
JAS-1B 16 Apr 14:20:13 14:25:42 23° 51° (NE) 14:30:36 435.800 - 435.900 CW/SSB
FUNcube-1 16 Apr 14:23:53 14:24:56 11° 309° (NW) 14:26:00 145.950 - 145.970 MHz USB
Uribyol 2 16 Apr 14:28:37 14:33:48 88° 73° (ENE) 14:39:00 436.500 FM
Uosat F 16 Apr 14:38:20 14:41:20 16° 50° (NE) 14:44:20 435.120 FM
Gurwin Techsat 1B 16 Apr 14:41:08 14:46:07 43° 64° (ENE) 14:51:07 435.225 FM
KITSAT 1 16 Apr 14:46:53 14:53:10 26° 254° (WSW) 14:59:26 435.175 FM
RS-15 16 Apr 14:47:59 14:58:45 56° 25° (NNE) 15:09:34 29.354 - 29.394 USB, Beacon 29.352 USB
HO-68 16 Apr 14:52:26 14:54:22 11° 335° (NNW) 14:56:18 435.675 MHz FM
Saudisat 1A 16 Apr 14:53:25 14:57:40 41° 327° (NNW) 15:01:54 436.775 MHz
AO-27 16 Apr 15:07:24 15:12:26 50° 260° (W) 15:17:30 436.795 MHz FM
OPAL 16 Apr 15:10:13 15:13:37 17° 90° (E) 15:17:01 ?
ITAMSAT 1 16 Apr 15:19:13 15:24:07 41° 262° (W) 15:29:02 435.822 SSB
TMSAT-1 16 Apr 15:31:06 15:36:23 74° 71° (ENE) 15:41:41 436.925 FM
Oscar 19 16 Apr 15:33:03 15:36:52 21° 271° (W) 15:40:42 437.125 CW, 437.150 USB
Oscar 16 16 Apr 15:41:26 15:44:43 17° 273° (W) 15:48:02 437.025 USB, Beacon 2401.1428
Oscar 10/S400 16 Apr 15:49:40 16:38:39 14° 270° (W) 17:50:48 145.825 - 145.975 CW/USB, Beacon 145.810 USB
AO-Echo 16 Apr 16:00:06 16:04:25 25° 268° (W) 16:08:40 ?
AO-7 16 Apr 16:03:12 16:11:18 62° 60° (ENE) 16:19:26 29.400 - 29.500 MHz
JAS-1B 16 Apr 16:07:40 16:15:40 79° 70° (ENE) 16:22:19 435.800 - 435.900 CW/SSB
Uribyol 2 16 Apr 16:10:42 16:14:01 17° 273° (W) 16:17:21 436.500 FM
Uosat F 16 Apr 16:14:20 16:19:21 73° 71° (ENE) 16:24:23 435.120 FM
Gurwin Techsat 1B 16 Apr 16:21:16 16:26:11 38° 264° (W) 16:31:08 435.225 FM
Saudisat 1A 16 Apr 16:34:59 16:38:21 20° 350° (N) 16:41:42 436.775 MHz
OPAL 16 Apr 16:47:59 16:53:13 89° 289° (WNW) 16:58:27 ?
SO-50 16 Apr 16:50:58 16:54:22 22° 116° (ESE) 16:57:49 436.795 FM
RS-15 16 Apr 17:00:55 17:11:47 74° 234° (SW) 17:22:50 29.354 - 29.394 USB, Beacon 29.352 USB
TMSAT-1 16 Apr 17:12:54 17:16:53 21° 271° (W) 17:20:54 436.925 FM
ISS 16 Apr 17:46:50 17:49:14 19° 146° (SE) 17:51:39 145.800 FM
JAS-2 16 Apr 17:47:51 17:51:33 19° 52° (NE) 17:55:06 435.800 - 435.900 CW/SSB, 435.910 FM
Hamsat 16 Apr 17:53:18 17:57:02 31° 64° (ENE) 18:00:48 145.90 MHz
Uosat F 16 Apr 17:55:02 17:58:42 20° 270° (W) 18:02:24 435.120 FM
AO-7 16 Apr 17:56:47 18:04:30 42° 263° (W) 18:12:17 29.400 - 29.500 MHz
JAS-1B 16 Apr 18:00:21 18:06:51 27° 269° (W) 18:12:34 435.800 - 435.900 CW/SSB
Saudisat 1A 16 Apr 18:15:51 18:19:22 22° 15° (NNE) 18:22:51 436.775 MHz
SO-67 16 Apr 18:17:39 18:18:42 11° 56° (ENE) 18:19:46 435.3500 MHz FM
HO-68 16 Apr 18:20:48 18:23:27 12° 28° (NNE) 18:26:07 435.675 MHz FM
OPAL 16 Apr 18:27:44 18:31:30 21° 310° (NW) 18:35:17 ?
SO-50 16 Apr 18:30:00 18:34:30 76° 317° (NW) 18:39:04 436.795 FM
RS-15 16 Apr 19:14:18 19:22:14 24° 259° (W) 19:30:20 29.354 - 29.394 USB, Beacon 29.352 USB
STRAND 1 16 Apr 19:21:16 19:25:20 23° 91° (E) 19:29:22 ?
ISS 16 Apr 19:22:14 19:25:31 51° 165° (SSE) 19:28:48 145.800 FM
Hamsat 16 Apr 19:29:07 19:33:00 36° 264° (W) 19:36:56 145.90 MHz
JAS-2 16 Apr 19:30:16 19:36:04 84° 73° (ENE) 19:41:24 435.800 - 435.900 CW/SSB, 435.910 FM
UOSAT-12 16 Apr 19:30:36 19:34:52 39° 123° (ESE) 19:39:14 437.025 FM, 437.400 FM
SO-67 16 Apr 19:47:47 19:51:17 88° 79° (ENE) 19:54:49 435.3500 MHz FM
Saudisat 1A 16 Apr 19:55:30 19:59:53 52° 38° (NE) 20:04:11 436.775 MHz
HO-68 16 Apr 20:02:56 20:09:09 34° 52° (NE) 20:15:24 435.675 MHz FM
SO-50 16 Apr 20:11:55 20:15:45 26° 339° (NNW) 20:19:38 436.795 FM
Oscar 11 16 Apr 20:55:34 20:58:39 19° 58° (ENE) 21:01:44 145.825 FM, Beacon 2401.500 USB
ISS 16 Apr 20:58:46 21:02:08 66° 185° (S) 21:05:29 145.800 FM
STRAND 1 16 Apr 20:59:55 21:04:59 64° 291° (WNW) 21:10:00 ?
UOSAT-12 16 Apr 21:10:31 21:15:00 49° 324° (NW) 21:19:35 437.025 FM, 437.400 FM
JAS-2 16 Apr 21:17:58 21:21:51 18° 271° (W) 21:25:34 435.800 - 435.900 CW/SSB, 435.910 FM
Saudisat 1A 16 Apr 21:35:23 21:39:21 33° 239° (WSW) 21:43:17 436.775 MHz
HO-68 16 Apr 21:49:17 21:56:25 73° 254° (WSW) 22:03:37 435.675 MHz FM
SO-50 16 Apr 21:54:18 21:57:42 20° 4° (N) 22:01:08 436.795 FM
FUNcube-1 16 Apr 22:12:02 22:15:46 32° 65° (ENE) 22:19:29 145.950 - 145.970 MHz USB
Oscar 11 16 Apr 22:30:08 22:34:26 69° 257° (WSW) 22:38:46 145.825 FM, Beacon 2401.500 USB
ISS 16 Apr 22:35:33 22:38:38 33° 205° (SSW) 22:41:41 145.800 FM
STRAND 1 16 Apr 22:40:36 22:43:17 15° 312° (NW) 22:45:58 ?
UOSAT-12 16 Apr 22:52:27 22:56:10 23° 348° (NNW) 22:59:56 437.025 FM, 437.400 FM
MaSat-1 16 Apr 23:16:42 23:19:18 34° 119° (ESE) 23:21:40 437.345 MHz
SO-50 16 Apr 23:35:20 23:39:31 33° 28° (NNE) 23:43:45 436.795 FM
HO-68 16 Apr 23:40:54 23:45:26 18° 276° (W) 23:50:00 435.675 MHz FM
FUNcube-1 16 Apr 23:48:20 23:52:12 34° 264° (W) 23:56:02 145.950 - 145.970 MHz USB
UOSAT-12 17 Apr 00:34:02 00:37:47 23° 12° (NNE) 00:41:32 437.025 FM, 437.400 FM
OPAL 17 Apr 00:55:02 00:57:39 14° 44° (NE) 01:00:17 ?
MaSat-1 17 Apr 00:56:05 00:57:51 16° 317° (NW) 00:59:34 437.345 MHz
SO-50 17 Apr 01:15:52 01:20:28 71° 229° (SW) 01:25:08 436.795 FM
Sapphire 17 Apr 01:37:37 01:41:57 25° 111° (ESE) 01:46:19 437.095 MHz 1200 baud AX-25 AFSK
Oscar 19 17 Apr 01:58:07 02:01:27 17° 87° (E) 02:04:46 437.125 CW, 437.150 USB
Oscar 16 17 Apr 02:05:33 02:09:24 20° 89° (E) 02:13:13 437.025 USB, Beacon 2401.1428
UOSAT-12 17 Apr 02:14:22 02:18:58 48° 35° (NE) 02:23:32 437.025 FM, 437.400 FM
PCSat 17 Apr 02:21:34 02:26:48 52° 120° (ESE) 02:32:04 145.825 MHz
AO-Echo 17 Apr 02:23:28 02:25:02 11° 83° (E) 02:26:35 ?
OPAL 17 Apr 02:30:38 02:35:35 58° 65° (ENE) 02:40:37 ?
Uribyol 2 17 Apr 02:35:46 02:39:33 20° 89° (E) 02:43:19 436.500 FM
SO-50 17 Apr 02:57:59 03:00:18 14° 249° (WSW) 03:02:37 436.795 FM
AO-27 17 Apr 03:13:58 03:18:47 37° 97° (E) 03:23:35 436.795 MHz FM
Sapphire 17 Apr 03:19:29 03:24:55 75° 312° (NW) 03:30:22 437.095 MHz 1200 baud AX-25 AFSK
ITAMSAT 1 17 Apr 03:25:20 03:30:19 45° 99° (E) 03:35:15 435.822 SSB
